www.pogodaiklimat.ru

Погода и климат >> Архив погоды >> Киргизия >> Бишкек


АРХИВ ПОГОДЫ в Бишкеке

Время (UTC), дата Ветер
(напр.,м/с)
 
Видим.   Явления Облачность Т
(С)
Тd
(С)
f
(%)
Тe
(С)
Тes
(С)
Комфортность P
(гПа)
Po
(гПа)
Тmin
(С)
Tmax
(С)
R
(мм)
R24
(мм)
S
(см)
00 16.05 Ю 1 20 км 4/0
[Ci fib]
+12.1 +7.1 71 +12 +12 по сезону 1013.4 926.8
03 16.05 В 1 20 км 8/0
[Ci fib]
+19.0 +8.4 50 +21 +28 комфорт 1011.4 926.9 +10.4
06 16.05 С 1 20 км 10/0
[Ac trans Ci fib]
+20.5 +8.2 45 +23 +33 комфорт 1010.0 926.1
09 16.05 З 1 20 км 10/1 1000 м
[Cu hum Ac trans Ci fib]
+22.1 +9.3 44 +24 +32 комфорт 1009.1 925.7
12 16.05 З 2 20 км 10/3 600 м
[Cb cap Ac trans Ci fib]
+21.2 +7.3 41 +22 +24 комфорт 1009.8 926.0
15 16.05 штиль 0 н/о 8/3 600 м
[Cb cap Ac trans Ci fib]
+19.0 +9.5 54 +20 +20 тепло 1011.3 926.9 +22.7
18 16.05 ЮЗ 1 н/о 10/0
[Ci fib]
+16.3 +10.9 70 +17 +17 тепло 1012.9 927.6 +22.7
21 16.05 штиль 0 н/о 10/0
[Ac trans Ci fib]
+14.6 +9.5 71 +14 +14 по сезону 1013.0 927.2
00 17.05 ЮЗ 1 н/о 10/6 600 м
[Cb cap Ac trans]
+14.4 +9.5 72 +15 +15 тепло 1013.6 927.7
03 17.05 С 1 20 км 10/5 600 м
[Cb cap Ac trans]
+18.6 +9.0 54 +20 +22 тепло 1013.5 928.7 +13.4
06 17.05 СВ 1 20 км 9/4 600 м
[Cb cap Ac trans Ci fib]
+22.0 +7.6 39 +23 +30 комфорт 1012.9 929.1
09 17.05 ЮЗ 1 20 км 10/5 600 м
[Cb cap Ac trans]
+22.2 +7.1 38 +23 +27 комфорт 1012.7 928.9
12 17.05 В 3 20 км в посл. час гроза 8/3 600 м
[Cb cap Ac trans]
+19.3 +6.5 43 +20 +21 прохладно 1013.9 929.3
15 17.05 Ю 1 н/о 8/4 600 м
[Cb cap Ac trans]
+18.7 +8.9 53 +20 +20 тепло 1013.2 928.5 +23.7
18 17.05 ЮВ 1 н/о ясно +15.0 +7.6 61 +16 +16 по сезону 1014.2 928.4 +23.7
21 17.05 Ю 1 н/о 3/0
[Ac trans]
+13.1 +5.0 58 +13 +13 по сезону 1014.3 927.9
00 18.05 В 2 20 км 8/0
[Ac lent]
+15.5 +3.8 46 +16 +16 тепло 1013.4 927.7
03 18.05 штиль 0 20 км в посл. час ливневой дождь 8/3 600 м
[Cb cap Ac trans]
+17.8 +9.2 57 +18 +22 тепло 1013.7 928.8 +12.2
06 18.05 З 2 20 км {ливн. осадки} 8/3 600 м
[Cb cap Ac trans]
+20.7 +4.5 35 +22 +29 комфорт 1013.8 929.5 0.1
09 18.05 ЮЗ 2 20 км 6/3 1000 м
[Cu hum Ac trans]
+22.9 +6.2 34 +23 +32 комфорт 1012.6 929.1
12 18.05 З 2 20 км 8/3 1000 м
[Cu hum Ac trans Ci fib]
+22.1 +5.3 33 +22 +24 комфорт 1013.1 929.3
15 18.05 штиль 0 н/о 8/0
[Ac trans Ci fib]
+18.3 +8.6 53 +19 +19 по сезону 1015.2 930.3 +23.6
18 18.05 Ю 2 н/о ясно +15.4 +5.0 50 +15 +15 по сезону 1016.7 930.7 +23.6
21 18.05 штиль 0 н/о 3/0
[Ci fib]
+11.8 +7.3 74 +11 +11 прохладно 1017.3 930.3
00 19.05 ЮВ 1 20 км 4/0
[Ci fib]
+11.0 +6.4 73 +11 +11 по сезону 1018.0 930.6
03 19.05 СЗ 1 20 км 4/0
[Ci fib]
+16.1 +9.2 64 +17 +25 по сезону 1017.0 931.3 +9.2
06 19.05 СЗ 2 20 км 10/0
[Ac trans Ci fib]
+19.0 +10.0 56 +20 +33 опасность
простуды
1016.5 931.6
09 19.05 ЮЗ 2 20 км 6/3 1000 м
[Cu hum Ac trans Ci fib]
+21.4 +5.9 36 +22 +31 комфорт 1015.6 931.4
12 19.05 З 2 20 км 10/3 1000 м
[Cu hum Ac trans Ci fib]
+21.6 +5.6 35 +22 +23 комфорт 1015.9 931.7
15 19.05 З 1 н/о 10/3 1000 м
[Cb cap Ac trans Ci fib]
+19.9 +5.0 38 +22 +22 комфорт 1017.0 932.3 +23.1
18 19.05 Ю 1 н/о ясно +13.4 +6.5 63 +14 +14 по сезону 1019.8 933.0 +23.1
21 19.05 штиль 0 н/о ясно +11.5 +5.5 67 +11 +11 прохладно 1021.0 933.5
00 20.05 ЮВ 1 20 км 3/0
[Ci fib]
+9.5 +7.8 89 +9 +9 прохладно 1021.3 933.3
03 20.05 С 1 20 км 3/0
[Ci fib]
+15.3 +7.3 59 +16 +24 по сезону 1020.0 933.7 +7.6
06 20.05 СВ 1 20 км 4/1 1000 м
[Cu hum Ac trans Ci fib]
+21.1 +5.1 35 +22 +37 комфорт 1017.7 933.2
09 20.05 СЗ 2 20 км 8/1 1000 м
[Cu hum Ac trans Ci fib]
+22.3 +5.0 32 +23 +31 комфорт 1016.6 932.5
12 20.05 СЗ 2 20 км 8/1 1000 м
[Cu hum Ac trans Ci fib]
+22.0 +3.6 30 +22 +24 комфорт 1016.9 932.7
15 20.05 штиль 0 н/о 4/0
[Ci fib]
+17.7 +4.0 40 +18 +18 по сезону 1019.1 933.5 +23.4
18 20.05 В 1 н/о ясно +13.7 +6.4 61 +14 +14 по сезону 1020.9 934.1 +23.4
21 20.05 штиль 0 н/о ясно +11.5 +7.4 76 +11 +11 прохладно 1020.7 933.4
00 21.05 штиль 0 20 км ясно +9.1 +7.1 87 +4 +4 очень
холодно
1021.1 933.0
03 21.05 В 1 20 км ясно +19.4 +6.4 43 +21 +30 комфорт 1017.9 933.0 +8.2
06 21.05 С 2 20 км 3/3 1000 м
[Cu hum]
+22.0 +7.1 38 +23 +36 комфорт 1016.4 932.3
09 21.05 З 2 20 км 4/3 1000 м
[Cu hum Ci fib]
+24.0 +5.8 31 +24 +35 комфорт 1015.1 931.6
12 21.05 З 2 20 км 6/1 1000 м
[Cu hum Ac trans Ci fib]
+25.1 +4.0 26 +24 +27 комфорт 1014.3 931.2
15 21.05 Ю 1 н/о 8/0
[Ac trans]
+19.9 +8.0 46 +22 +22 комфорт 1016.7 932.1 +25.9
18 21.05 В 2 н/о 6/0
[Ci fib]
+17.6 +7.3 51 +18 +18 тепло 1017.2 931.8 +25.9
21 21.05 штиль 0 н/о 3/0
[Ci fib]
+15.2 +7.6 60 +15 +15 по сезону 1016.3 930.4
00 22.05 штиль 0 20 км 4/0
[Ac lent Ci fib]
+11.8 +6.8 71 +11 +11 по сезону 1018.0 930.9
03 22.05 штиль 0 20 км 1/0
[Ac trans]
+20.6 +5.8 38 +21 +31 комфорт 1015.4 931.0 +10.3
06 22.05 С 1 20 км 3/1 1000 м
[Cu hum Ac trans]
+23.3 +5.8 32 +24 +40 комфорт 1013.8 930.2
09 22.05 СЗ 2 20 км 3/1 1000 м
[Cu hum Ac trans]
+25.4 +2.9 23 +24 +37 комфорт 1011.9 929.0
12 22.05 СЗ 2 20 км 3/1 1000 м
[Cu hum Ac trans]
+25.3 +3.0 23 +24 +27 комфорт 1011.6 928.7
15 22.05 Ю 1 н/о 8/0
[Ac trans Ci fib]
+21.9 +6.1 36 +23 +23 комфорт 1012.6 928.7 +26.6
18 22.05 ЮЗ 2 н/о 8/0
[Ac trans]
+20.1 +0.9 28 +21 +21 комфорт 1013.2 928.7 +26.6

 

Местоположение метеостанции Бишкек (город Бишкек, Киргизия): широта 42.85 долгота 74.53 высота над уровнем моря 760 м.

В архиве по умолчанию представлена погода в Бишкеке за последнюю неделю. Архивные данные за месяц целиком и за предыдущие месяцы, начиная с января 2011 года, Вы можете получить, выбрав интересующий диапазон дат из раскрывающегося списка и нажав кнопку "Ввод!".


*Определитесь, кто Вы:
робот инопланетянин человек

Внимание! Время в таблицах - всемирное. Для получения местного времени необходимо прибавить поправку, которая в Бишкеке равна 6 ч.

Смотрите также архив погоды в соседних городах и на ближайших метеорологических станциях:

Погода в Байтике (Чуйская область, Киргизия) (22 км)
Погода в Иссык-Ате (город Бишкек, Киргизия) (28 км)
Погода в Яны-Жере (Чуйская область, Киргизия) (46 км)
Погода в Бериктасе (Жамбылская область, Казахстан) (49 км)
Погода в Кара-Балте (Чуйская область, Киргизия) (58 км)
Погода в Тео-Ашуу (Чуйская область, Киргизия) (58 км)
Погода в Токмоке (Чуйская область, Киргизия) (61 км)
Погода в Кордае (Жамбылская область, Казахстан) (66 км)
Погода в Сусамыре (Чуйская область, Киргизия) (90 км)
Погода в Отаре (Жамбылская область, Казахстан) (96 км)

Пояснения к столбцам:

Ветер - указаны скорость ветра в м/с - средняя за 10 мин, порывы в срок и между сроками (в фигурных скобках) и направление, откуда дует ветер: С - северный, СВ - северо-восточный, В - восточный, ЮВ - юго-восточный, Ю - южный, ЮЗ - юго-западный, З - западный, СЗ - северо-западный.
Видимость - горизонтальная дальность видимости в метрах или километрах. При видимости от 1 до 10 км при отсутствии осадков обычно наблюдается дымка, при ухудшении видимости до 1 км и менее - туман. В сухую погоду видимость может ухудшаться дымом, пылью или мглою.
Явления - указаны атмосферные явления, наблюдавшиеся в срок или в последний час перед сроком; фигурными скобками обозначены явления, наблюдавшиеся между сроками (за 1-3 часа до срока); квадратными скобками обозначены град или гололедные отложения с указанием их диаметра в мм.
Облачность - указаны через наклонную черту общая и нижняя облачность в баллах и высота нижней границы облаков в метрах; квадратными скобками обозначены формы облаков: Ci - перистые, Cs - перисто-слоистые, Cc - перисто-кучевые, Ac - высококучевые, As - высокослоистые, Sc - слоисто-кучевые, Ns - слоисто-дождевые, Cu - кучевые, Cb - кучево-дождевые. Подробнее классификацию облаков см. в Атласе облаков (PDF).
T - Температура воздуха - температура, измеренная на высоте 2 м над землей.
Td - Температура точки росы - температура, при понижении до которой содержащийся в воздухе водяной пар достигнет насыщения.
f - Относительная влажность воздуха - влажноcть воздуха, измеренная на высоте 2 м над землей.
Te - Эффективная температура - температура, которую ощущает одетый по сезону человек в тени. Характеристика душности погоды. При расчете учитывается влияние влажности воздуха и скорости ветра на теплоощущения человека.
Tes - Эффективная температура на солнце - температура, которую ощущает человек, с поправкой на солнечный нагрев. Характеристика знойности погоды. Зависит от высоты солнца над горизонтом, облачности и скорости ветра. Ночью, в пасмурную погоду, а также при ветре 12 м/с и более поправка равна нулю.
P - Атмосферное давление - приведенное к уровню моря атмосферное давление.
Po - Атмосферное давление - измеренное на уровне метеостанции атмосферное давление.
Tmin - Минимальная температура - минимум температуры воздуха на высоте 2 м над землей.
Tmax - Максимальная температура - максимум температуры воздуха на высоте 2 м над землей.
R - Количество осадков - Количество выпавших осадков за период времени, мм. При наведении курсора мыши на число - период времени, за который выпало указанное количество осадков.
R24 - Количество осадков - Количество выпавших осадков за 24 часа, мм.
S - Снежный покров - Высота снежного покрова, см. При наведении курсора мыши на число - состояние снежного покрова и степень покрытия местности в баллах.